^^
Saratoga-Weather Station Historical Data
Daily Summary for February 12, 2021 Units:  English    Metric   Both
Daily Weekly Monthly Yearly Custom
  High: Low: Average:
Temperature: 43.3 °F 35.4 °F 38.3 °F
Dew Point: 42.1 °F 32.2 °F 36.3 °F
Humidity: 95% 86% 93%
Wind Speed: 13mph 0mph 3.9mph
Wind Gust: 16mph - -
Wind- - West
Pressure: 30.1 in 29.8 in -
Precipitation: 0.83 in    
Historical Graphs
 
 
Tabular Data for February 12, 2021
Time Temperature Dew Point Pressure Wind Wind Speed Wind Gust Humidity Rainfall Rate (Hourly) solar
00:02 35.4 °F 32.2 °F 30.1 in NNE 2.9 mph 3 mph 88% 0 in 0 W/m2
00:07 35.4 °F 32.2 °F 30.1 in NNW 0.9 mph 9 mph 88% 0 in 0 W/m2
00:12 35.4 °F 32.2 °F 30.1 in West 2 mph 7 mph 88% 0 in 0 W/m2
00:17 35.4 °F 32.2 °F 30.1 in WNW 6.9 mph 9 mph 88% 0 in 0 W/m2
00:22 35.4 °F 32.2 °F 30.1 in Calm   3 mph 88% 0 in 0 W/m2
00:27 35.4 °F 32.2 °F 30.1 in WNW 6 mph 8 mph 88% 0 in 0 W/m2
00:32 35.6 °F 32.7 °F 30.1 in SW 2 mph 14 mph 89% 0 in 0 W/m2
00:37 35.8 °F 32.5 °F 30.1 in WSW 2.9 mph 3 mph 88% 0 in 0 W/m2
00:42 35.8 °F 32.9 °F 30.1 in SE 4 mph 14 mph 89% 0 in 0 W/m2
00:47 35.8 °F 32.9 °F 30.1 in NW 0.9 mph 5 mph 89% 0 in 0 W/m2
00:52 35.8 °F 32.9 °F 30.1 in WNW 2.9 mph 11 mph 89% 0 in 0 W/m2
00:57 36 °F 33.1 °F 30.1 in WNW 4.9 mph 8 mph 89% 0 in 0 W/m2
01:02 36 °F 33.1 °F 30 in West 13 mph 13 mph 89% 0 in 0 W/m2
01:07 36 °F 33.1 °F 30 in NW 2.9 mph 5 mph 89% 0 in 0 W/m2
01:12 36 °F 33.1 °F 30 in NE 2 mph 2 mph 89% 0 in 0 W/m2
01:17 36.1 °F 33.3 °F 30 in South 0.9 mph 3 mph 89% 0 in 0 W/m2
01:22 36.1 °F 33.3 °F 30 in North 2 mph 4 mph 89% 0 in 0 W/m2
01:27 36.1 °F 33.3 °F 30 in SW 2.9 mph 6 mph 89% 0 in 0 W/m2
01:32 36.1 °F 33.3 °F 30 in West 4 mph 6 mph 89% 0 in 0 W/m2
01:37 36.1 °F 33.3 °F 30 in NNW 6 mph 6 mph 89% 0 in 0 W/m2
01:42 36.1 °F 33.4 °F 30 in NNW 2 mph 5 mph 90% 0 in 0 W/m2
01:47 36.1 °F 33.4 °F 30 in WNW 2.9 mph 7 mph 90% 0 in 0 W/m2
01:52 36.1 °F 33.4 °F 30 in WNW 2 mph 3 mph 90% 0 in 0 W/m2
01:57 36.1 °F 33.8 °F 30 in WNW 0.9 mph 9 mph 91% 0 in 0 W/m2
02:02 36.1 °F 33.8 °F 30 in NNW 8.1 mph 8 mph 91% 0 in 0 W/m2
02:07 36 °F 33.8 °F 30 in West 2.9 mph 9 mph 92% 0 in 0 W/m2
02:12 36 °F 33.8 °F 30 in SW 4 mph 9 mph 92% 0 in 0 W/m2
02:17 36 °F 33.8 °F 30 in NNW 2 mph 7 mph 92% 0 in 0 W/m2
02:22 36 °F 34.2 °F 30 in NNW 2 mph 7 mph 93% 0 in 0 W/m2
02:27 36 °F 34.2 °F 30 in West 2 mph 7 mph 93% 0 in 0 W/m2
02:32 36 °F 34.2 °F 30 in WNW 0.9 mph 4 mph 93% 0 in 0 W/m2
02:37 36 °F 34.2 °F 30 in West 2.9 mph 8 mph 93% 0 in 0 W/m2
02:42 36.1 °F 34.5 °F 30 in NW 2 mph 7 mph 94% 0 in 0 W/m2
02:47 36.1 °F 34.5 °F 30 in WNW 4 mph 7 mph 94% 0 in 0 W/m2
02:52 36.1 °F 34.5 °F 30 in NW 2.9 mph 9 mph 94% 0 in 0 W/m2
02:57 36.3 °F 34.7 °F 30 in WSW 4.9 mph 6 mph 94% 0 in 0 W/m2
03:02 36.3 °F 34.7 °F 30 in WSW 6.9 mph 11 mph 94% 0 in 0 W/m2
03:07 36.3 °F 34.7 °F 30 in NW 2 mph 6 mph 94% 0.01 in 0 W/m2
03:12 36.3 °F 34.7 °F 30 in North 2 mph 11 mph 94% 0.01 in 0 W/m2
03:17 36.3 °F 34.7 °F 30 in WNW 0.9 mph 4 mph 94% 0.01 in 0 W/m2
03:22 36.3 °F 34.7 °F 30 in NNE 2 mph 4 mph 94% 0.01 in 0 W/m2
03:27 36.3 °F 34.7 °F 30 in NW 2.9 mph 7 mph 94% 0.02 in 0 W/m2
03:32 36.3 °F 34.7 °F 30 in WSW 4 mph 9 mph 94% 0.02 in 0 W/m2
03:37 36.3 °F 34.7 °F 30 in West 0.9 mph 5 mph 94% 0.02 in 0 W/m2
03:42 36.3 °F 34.7 °F 30 in North 2.9 mph 11 mph 94% 0.02 in 0 W/m2
03:47 36.5 °F 34.9 °F 30 in WSW 4.9 mph 9 mph 94% 0.02 in 0 W/m2
03:52 36.7 °F 35.1 °F 30 in South 4 mph 9 mph 94% 0.02 in 0 W/m2
03:57 36.7 °F 35.1 °F 30 in WNW 2 mph 9 mph 94% 0.02 in 0 W/m2
04:02 36.7 °F 35.1 °F 30 in WNW 2.9 mph 12 mph 94% 0.02 in 0 W/m2
04:08 36.7 °F 35.1 °F 30 in West 4 mph 7 mph 94% 0.01 in 0 W/m2
04:13 36.7 °F 35.1 °F 30 in West 2.9 mph 8 mph 94% 0.01 in 0 W/m2
04:18 36.7 °F 35.1 °F 30 in West 8.1 mph 14 mph 94% 0.01 in 0 W/m2
04:23 36.7 °F 35.1 °F 30 in WSW 4 mph 8 mph 94% 0.01 in 0 W/m2
04:28 36.7 °F 35.1 °F 30 in NW 4.9 mph 8 mph 94% 0 in 0 W/m2
04:33 36.9 °F 35.2 °F 30 in SW 0.9 mph 7 mph 94% 0 in 0 W/m2
04:38 36.9 °F 35.2 °F 30 in WNW 4.9 mph 7 mph 94% 0 in 0 W/m2
04:43 36.9 °F 35.2 °F 30 in WNW 10.1 mph 13 mph 94% 0 in 0 W/m2
04:48 36.9 °F 35.2 °F 30 in WNW 2 mph 12 mph 94% 0 in 0 W/m2
04:53 36.9 °F 35.2 °F 30 in NNW 4 mph 7 mph 94% 0 in 0 W/m2
04:58 36.9 °F 35.2 °F 30 in NW 4 mph 6 mph 94% 0 in 0 W/m2
05:03 36.9 °F 35.2 °F 30 in NW 2.9 mph 12 mph 94% 0 in 0 W/m2
05:08 36.9 °F 35.2 °F 29.9 in West 2 mph 9 mph 94% 0 in 0 W/m2
05:13 37 °F 35.8 °F 29.9 in West 4 mph 14 mph 95% 0.01 in 0 W/m2
05:18 37 °F 35.4 °F 29.9 in NW 4 mph 10 mph 94% 0.02 in 0 W/m2
05:23 36.9 °F 35.2 °F 29.9 in WSW 6.9 mph 11 mph 94% 0.02 in 0 W/m2
05:28 36.9 °F 35.2 °F 29.9 in West 4 mph 9 mph 94% 0.05 in 0 W/m2
05:33 36.9 °F 35.2 °F 29.9 in NW 2 mph 12 mph 94% 0.07 in 0 W/m2
05:38 36.9 °F 35.2 °F 29.9 in WSW 2.9 mph 14 mph 94% 0.09 in 0 W/m2
05:43 36.9 °F 35.2 °F 29.9 in NW 6.9 mph 8 mph 94% 0.1 in 0 W/m2
05:48 36.9 °F 35.2 °F 29.9 in South 6.9 mph 9 mph 94% 0.11 in 0 W/m2
05:53 36.9 °F 35.2 °F 29.9 in NNW 0.9 mph 8 mph 94% 0.12 in 0 W/m2
05:58 36.9 °F 35.2 °F 29.9 in SSE 2 mph 7 mph 94% 0.13 in 0 W/m2
06:03 36.9 °F 35.2 °F 29.9 in NW 10.1 mph 15 mph 94% 0.14 in 0 W/m2
06:08 36.9 °F 35.2 °F 29.9 in NW 0.9 mph 12 mph 94% 0.15 in 0 W/m2
06:13 36.9 °F 35.2 °F 29.9 in SW 2.9 mph 10 mph 94% 0.15 in 0 W/m2
06:18 36.9 °F 35.2 °F 29.9 in West 4 mph 15 mph 94% 0.15 in 0 W/m2
06:23 36.7 °F 35.1 °F 29.9 in NNE 2.9 mph 9 mph 94% 0.15 in 0 W/m2
06:28 36.7 °F 35.1 °F 29.9 in West 0.9 mph 8 mph 94% 0.13 in 0 W/m2
06:33 36.7 °F 35.1 °F 29.9 in West 2.9 mph 9 mph 94% 0.12 in 0 W/m2
06:38 36.9 °F 35.2 °F 29.9 in NNW 8.1 mph 8 mph 94% 0.11 in 0 W/m2
06:43 36.9 °F 35.2 °F 29.9 in WNW 2 mph 8 mph 94% 0.1 in 0 W/m2
06:48 36.7 °F 35.1 °F 29.9 in Calm   3 mph 94% 0.1 in 0 W/m2
06:53 36.7 °F 35.1 °F 29.9 in West 6 mph 8 mph 94% 0.1 in 0 W/m2
06:58 36.7 °F 35.1 °F 29.9 in NE 2 mph 9 mph 94% 0.1 in 0 W/m2
07:03 36.7 °F 35.1 °F 29.9 in NNW 2 mph 8 mph 94% 0.09 in 0 W/m2
07:08 36.7 °F 35.1 °F 29.9 in NNW 2.9 mph 10 mph 94% 0.09 in 0 W/m2
07:13 36.7 °F 35.1 °F 29.9 in West 4 mph 5 mph 94% 0.09 in 0 W/m2
07:18 36.7 °F 35.1 °F 29.9 in WNW 2.9 mph 10 mph 94% 0.1 in 0 W/m2
07:23 36.7 °F 35.1 °F 29.9 in ENE 2 mph 12 mph 94% 0.1 in 0 W/m2
07:28 36.7 °F 35.1 °F 29.9 in WNW 2 mph 14 mph 94% 0.11 in 0 W/m2
07:33 36.7 °F 35.1 °F 29.9 in NW 6 mph 13 mph 94% 0.11 in 0 W/m2
07:38 36.7 °F 35.1 °F 29.9 in WSW 8.9 mph 14 mph 94% 0.11 in 0 W/m2
07:43 36.7 °F 35.1 °F 29.9 in NW 0.9 mph 8 mph 94% 0.12 in 0 W/m2
07:48 36.7 °F 35.1 °F 29.9 in NE 4.9 mph 13 mph 94% 0.12 in 0 W/m2
07:53 36.7 °F 35.1 °F 29.9 in NW 8.9 mph 9 mph 94% 0.13 in 0 W/m2
07:58 36.7 °F 35.1 °F 29.9 in NW 4 mph 10 mph 94% 0.13 in 0 W/m2
08:03 36.7 °F 35.1 °F 29.9 in West 2.9 mph 8 mph 94% 0.13 in 0 W/m2
08:08 36.7 °F 35.1 °F 29.9 in WSW 2 mph 9 mph 94% 0.14 in 0 W/m2
08:13 36.7 °F 35.1 °F 29.9 in NW 2 mph 5 mph 94% 0.14 in 0 W/m2
08:18 36.7 °F 35.1 °F 29.9 in WNW 8.9 mph 12 mph 94% 0.14 in 0 W/m2
08:23 36.7 °F 35.1 °F 29.9 in WNW 0.9 mph 9 mph 94% 0.14 in 0 W/m2
08:28 36.7 °F 35.1 °F 29.9 in NNW 2.9 mph 7 mph 94% 0.14 in 0 W/m2
08:33 36.7 °F 35.1 °F 29.9 in SW 2 mph 7 mph 94% 0.14 in 0 W/m2
08:38 36.5 °F 34.9 °F 29.9 in West 8.1 mph 13 mph 94% 0.15 in 0 W/m2
08:43 36.3 °F 34.7 °F 29.9 in WNW 8.9 mph 9 mph 94% 0.14 in 0 W/m2
08:48 36.3 °F 34.7 °F 29.9 in WNW 4.9 mph 13 mph 94% 0.15 in 0 W/m2
08:53 36.3 °F 34.7 °F 29.9 in WSW 4 mph 11 mph 94% 0.15 in 0 W/m2
08:59 36.3 °F 34.7 °F 29.9 in West 2.9 mph 6 mph 94% 0.15 in 0 W/m2
09:04 36.1 °F 34.5 °F 29.9 in NW 10.1 mph 14 mph 94% 0.15 in 0 W/m2
09:09 36.1 °F 34.5 °F 29.9 in WNW 6.9 mph 13 mph 94% 0.14 in 5 W/m2
09:14 36.1 °F 34.5 °F 29.9 in NNE 2.9 mph 9 mph 94% 0.14 in 5 W/m2
09:19 36.1 °F 34.5 °F 29.9 in WNW 2.9 mph 7 mph 94% 0.14 in 7 W/m2
09:24 36 °F 34.3 °F 29.9 in West 4 mph 16 mph 94% 0.14 in 9 W/m2
09:29 36 °F 34.3 °F 29.9 in West 6 mph 10 mph 94% 0.13 in 11 W/m2
09:34 36 °F 34.3 °F 29.9 in WNW 2.9 mph 9 mph 94% 0.13 in 12 W/m2
09:39 36 °F 34.3 °F 29.9 in NNW 0.9 mph 8 mph 94% 0.13 in 16 W/m2
09:44 36 °F 34.3 °F 29.9 in NNW 4.9 mph 11 mph 94% 0.12 in 18 W/m2
09:49 36 °F 34.3 °F 29.9 in WNW 2 mph 9 mph 94% 0.12 in 18 W/m2
09:54 36.1 °F 34.5 °F 29.9 in West 11 mph 12 mph 94% 0.1 in 21 W/m2
09:59 36.1 °F 34.5 °F 29.9 in WNW 2.9 mph 8 mph 94% 0.1 in 21 W/m2
10:04 36.1 °F 34.5 °F 29.9 in NW 2.9 mph 12 mph 94% 0.09 in 23 W/m2
10:09 36.3 °F 34.7 °F 29.9 in NW 10.1 mph 10 mph 94% 0.09 in 26 W/m2
10:14 36.3 °F 34.7 °F 29.9 in West 2 mph 7 mph 94% 0.09 in 35 W/m2
10:19 36.3 °F 34.7 °F 29.9 in West 2.9 mph 10 mph 94% 0.07 in 39 W/m2
10:24 36.3 °F 34.7 °F 29.9 in NNW 6 mph 10 mph 94% 0.06 in 39 W/m2
10:29 36.7 °F 35.1 °F 29.9 in NW 4.9 mph 6 mph 94% 0.06 in 32 W/m2
10:34 36.7 °F 35.1 °F 29.9 in WNW 2 mph 12 mph 94% 0.06 in 35 W/m2
10:39 36.7 °F 35.1 °F 29.9 in WSW 8.9 mph 15 mph 94% 0.05 in 32 W/m2
10:44 36.9 °F 35.2 °F 29.9 in NNW 4 mph 7 mph 94% 0.05 in 26 W/m2
10:49 36.9 °F 35.2 °F 29.9 in WNW 6.9 mph 15 mph 94% 0.04 in 28 W/m2
10:54 36.9 °F 35.2 °F 29.9 in NNE 4.9 mph 5 mph 94% 0.04 in 35 W/m2
10:59 36.9 °F 35.2 °F 29.9 in WNW 2.9 mph 9 mph 94% 0.04 in 39 W/m2
11:04 36.9 °F 35.2 °F 29.9 in West 6.9 mph 12 mph 94% 0.03 in 53 W/m2
11:09 36.9 °F 35.2 °F 29.9 in WNW 2.9 mph 11 mph 94% 0.03 in 60 W/m2
11:14 37 °F 35.4 °F 29.9 in West 2 mph 12 mph 94% 0.03 in 70 W/m2
11:19 37 °F 35.4 °F 29.9 in SE 2 mph 7 mph 94% 0.03 in 49 W/m2
11:24 37.2 °F 35.6 °F 29.9 in SSE 10.1 mph 11 mph 94% 0.04 in 53 W/m2
11:29 37.2 °F 35.6 °F 29.9 in West 2.9 mph 9 mph 94% 0.03 in 47 W/m2
11:34 37.4 °F 35.8 °F 29.9 in WNW 6.9 mph 8 mph 94% 0.04 in 51 W/m2
11:39 37.6 °F 36 °F 29.9 in SW 0.9 mph 4 mph 94% 0.04 in 63 W/m2
11:44 37.8 °F 36.5 °F 29.9 in NW 2 mph 6 mph 95% 0.04 in 54 W/m2
11:49 37.9 °F 36.7 °F 29.9 in NNW 4.9 mph 9 mph 95% 0.04 in 53 W/m2
11:54 37.9 °F 36.7 °F 29.8 in WNW 6.9 mph 9 mph 95% 0.05 in 60 W/m2
11:59 38.1 °F 36.9 °F 29.8 in West 2.9 mph 7 mph 95% 0.04 in 67 W/m2
12:04 38.5 °F 37.2 °F 29.8 in NW 6 mph 12 mph 95% 0.05 in 62 W/m2
12:09 38.7 °F 37.4 °F 29.8 in West 0.9 mph 7 mph 95% 0.05 in 54 W/m2
12:14 38.8 °F 37.6 °F 29.8 in NNW 6 mph 10 mph 95% 0.05 in 60 W/m2
12:19 38.8 °F 37.6 °F 29.8 in Calm   4 mph 95% 0.05 in 60 W/m2
12:24 39 °F 37.8 °F 29.8 in NW 4 mph 7 mph 95% 0.05 in 69 W/m2
12:29 39.2 °F 37.9 °F 29.8 in NNW 6 mph 8 mph 95% 0.05 in 67 W/m2
12:34 39.4 °F 38.1 °F 29.8 in WNW 2 mph 9 mph 95% 0.05 in 65 W/m2
12:39 39.6 °F 38.3 °F 29.8 in WNW 2.9 mph 8 mph 95% 0.05 in 72 W/m2
12:44 39.6 °F 38.3 °F 29.8 in WNW 0.9 mph 16 mph 95% 0.04 in 62 W/m2
12:49 39.7 °F 38.5 °F 29.8 in WSW 2.9 mph 9 mph 95% 0.05 in 51 W/m2
12:54 39.7 °F 38.5 °F 29.8 in WNW 2 mph 16 mph 95% 0.04 in 62 W/m2
12:59 39.9 °F 38.7 °F 29.8 in WSW 4 mph 10 mph 95% 0.04 in 47 W/m2
13:04 39.9 °F 38.7 °F 29.8 in West 6 mph 8 mph 95% 0.03 in 37 W/m2
13:09 40.1 °F 38.8 °F 29.8 in West 2 mph 8 mph 95% 0.04 in 54 W/m2
13:14 40.3 °F 39 °F 29.8 in WSW 8.1 mph 11 mph 95% 0.04 in 56 W/m2
13:19 40.5 °F 39.2 °F 29.8 in West 11 mph 11 mph 95% 0.05 in 67 W/m2
13:24 40.5 °F 39.2 °F 29.8 in West 6.9 mph 11 mph 95% 0.04 in 67 W/m2
13:29 40.6 °F 39.4 °F 29.8 in West 6 mph 14 mph 95% 0.05 in 72 W/m2
13:34 40.6 °F 39.4 °F 29.8 in NW 2 mph 9 mph 95% 0.04 in 49 W/m2
13:39 40.6 °F 39.4 °F 29.8 in West 6 mph 10 mph 95% 0.04 in 47 W/m2
13:44 40.8 °F 39.6 °F 29.8 in WNW 4 mph 9 mph 95% 0.04 in 58 W/m2
13:49 40.8 °F 39.6 °F 29.8 in NW 6 mph 13 mph 95% 0.04 in 37 W/m2
13:54 40.8 °F 39.6 °F 29.8 in WNW 6.9 mph 11 mph 95% 0.04 in 40 W/m2
13:59 41 °F 39.7 °F 29.8 in NW 8.9 mph 13 mph 95% 0.04 in 33 W/m2
14:04 41.2 °F 39.9 °F 29.8 in West 2.9 mph 7 mph 95% 0.05 in 32 W/m2
14:09 41.2 °F 39.9 °F 29.8 in WNW 6 mph 7 mph 95% 0.04 in 35 W/m2
14:14 41.2 °F 39.9 °F 29.8 in West 2 mph 9 mph 95% 0.03 in 30 W/m2
14:19 41.2 °F 39.9 °F 29.8 in WNW 4 mph 8 mph 95% 0.02 in 26 W/m2
14:24 41.4 °F 40.1 °F 29.8 in West 6.9 mph 14 mph 95% 0.03 in 19 W/m2
14:29 41.4 °F 40.1 °F 29.8 in WSW 4 mph 10 mph 95% 0.02 in 25 W/m2
14:35 41.4 °F 40.1 °F 29.8 in West 6 mph 11 mph 95% 0.02 in 49 W/m2
14:40 41.5 °F 40.3 °F 29.8 in WNW 2.9 mph 11 mph 95% 0.02 in 37 W/m2
14:45 41.5 °F 40.3 °F 29.8 in NW 4.9 mph 12 mph 95% 0.02 in 28 W/m2
14:50 41.7 °F 40.5 °F 29.8 in NW 2.9 mph 9 mph 95% 0.02 in 40 W/m2
14:55 41.7 °F 40.5 °F 29.8 in WNW 8.9 mph 12 mph 95% 0.02 in 40 W/m2
15:00 41.9 °F 40.6 °F 29.8 in WSW 4.9 mph 9 mph 95% 0.02 in 46 W/m2
15:05 42.1 °F 40.8 °F 29.8 in West 4 mph 11 mph 95% 0.02 in 67 W/m2
15:10 42.1 °F 40.8 °F 29.8 in WNW 2.9 mph 8 mph 95% 0.02 in 58 W/m2
15:15 42.3 °F 41 °F 29.8 in WSW 4 mph 8 mph 95% 0.02 in 56 W/m2
15:20 42.3 °F 41 °F 29.8 in WNW 4.9 mph 7 mph 95% 0.02 in 54 W/m2
15:25 42.4 °F 41.2 °F 29.8 in WNW 6.9 mph 9 mph 95% 0.01 in 53 W/m2
15:30 42.4 °F 41.2 °F 29.8 in WNW 0.9 mph 7 mph 95% 0.01 in 42 W/m2
15:35 42.6 °F 41.4 °F 29.8 in West 4 mph 7 mph 95% 0.01 in 26 W/m2
15:40 42.6 °F 41.4 °F 29.8 in WNW 4.9 mph 8 mph 95% 0.01 in 25 W/m2
15:45 42.6 °F 41.4 °F 29.8 in West 2.9 mph 8 mph 95% 0.01 in 25 W/m2
15:50 42.6 °F 41.4 °F 29.8 in WSW 4.9 mph 6 mph 95% 0.02 in 25 W/m2
15:55 42.6 °F 41.4 °F 29.8 in WSW 6.9 mph 9 mph 95% 0.02 in 28 W/m2
16:00 42.6 °F 41.4 °F 29.8 in WSW 4 mph 7 mph 95% 0.02 in 30 W/m2
16:05 42.6 °F 41.4 °F 29.8 in WNW 6.9 mph 9 mph 95% 0.01 in 21 W/m2
16:10 42.8 °F 41.5 °F 29.8 in West 6 mph 9 mph 95% 0.01 in 18 W/m2
16:15 42.8 °F 41.5 °F 29.8 in SW 6.9 mph 9 mph 95% 0.02 in 16 W/m2
16:20 42.8 °F 41.5 °F 29.8 in WSW 8.1 mph 8 mph 95% 0.02 in 18 W/m2
16:25 43 °F 41.7 °F 29.8 in WSW 4 mph 8 mph 95% 0.02 in 12 W/m2
16:30 43 °F 41.7 °F 29.8 in WSW 2.9 mph 7 mph 95% 0.02 in 14 W/m2
16:35 43 °F 41.7 °F 29.8 in WNW 4.9 mph 10 mph 95% 0.02 in 9 W/m2
16:40 43 °F 41.7 °F 29.8 in West 8.1 mph 10 mph 95% 0.02 in 5 W/m2
16:45 43 °F 41.7 °F 29.9 in West 6 mph 7 mph 95% 0.02 in 5 W/m2
16:50 43.2 °F 41.9 °F 29.9 in WNW 4.9 mph 10 mph 95% 0.02 in 0 W/m2
16:55 43.2 °F 41.9 °F 29.9 in West 4 mph 10 mph 95% 0.02 in 0 W/m2
17:00 43.2 °F 41.9 °F 29.9 in West 8.1 mph 9 mph 95% 0.02 in 0 W/m2
17:05 43.3 °F 42.1 °F 29.9 in West 4 mph 8 mph 95% 0.02 in 0 W/m2
17:10 43.2 °F 41.9 °F 29.9 in WNW 4.9 mph 9 mph 95% 0.02 in 0 W/m2
17:15 43.3 °F 42.1 °F 29.9 in WNW 2.9 mph 6 mph 95% 0.01 in 0 W/m2
17:20 43.2 °F 41.5 °F 29.9 in WNW 4.9 mph 7 mph 94% 0.01 in 0 W/m2
17:25 43.3 °F 41.7 °F 29.9 in WNW 2.9 mph 6 mph 94% 0 in 0 W/m2
17:30 43.2 °F 41.4 °F 29.9 in WNW 4 mph 7 mph 93% 0 in 0 W/m2
17:35 43.2 °F 41.4 °F 29.9 in West 2.9 mph 7 mph 93% 0 in 0 W/m2
17:40 43 °F 41.2 °F 29.9 in West 2.9 mph 7 mph 93% 0 in 0 W/m2
17:45 43 °F 41.2 °F 29.9 in WNW 4.9 mph 8 mph 93% 0 in 0 W/m2
17:50 43 °F 41.2 °F 29.9 in West 6 mph 6 mph 93% 0 in 0 W/m2
17:55 43 °F 41.2 °F 29.9 in NW 2.9 mph 6 mph 93% 0 in 0 W/m2
18:00 42.8 °F 41 °F 29.9 in WNW 2 mph 6 mph 93% 0 in 0 W/m2
18:05 42.6 °F 40.8 °F 29.9 in West 2 mph 3 mph 93% 0 in 0 W/m2
18:10 42.4 °F 40.6 °F 29.9 in WNW 2 mph 4 mph 93% 0 in 0 W/m2
18:15 42.3 °F 40.5 °F 29.9 in WNW 0.9 mph 3 mph 93% 0 in 0 W/m2
18:20 42.1 °F 40.3 °F 29.9 in WNW 0.9 mph 3 mph 93% 0 in 0 W/m2
18:25 41.7 °F 39.9 °F 29.9 in West 2 mph 3 mph 93% 0 in 0 W/m2
18:30 41.5 °F 39.9 °F 29.9 in WNW 2 mph 3 mph 94% 0 in 0 W/m2
18:35 41.5 °F 39.9 °F 29.9 in WNW 2 mph 3 mph 94% 0 in 0 W/m2
18:40 41.4 °F 39.7 °F 29.9 in WNW 2.9 mph 3 mph 94% 0 in 0 W/m2
18:45 41.2 °F 39.6 °F 29.9 in WSW 2.9 mph 4 mph 94% 0 in 0 W/m2
18:50 41.2 °F 39.6 °F 29.9 in WNW 2 mph 4 mph 94% 0 in 0 W/m2
18:55 41.2 °F 39.6 °F 29.9 in WSW 4 mph 7 mph 94% 0 in 0 W/m2
19:01 41.2 °F 39.6 °F 29.9 in WNW 4.9 mph 5 mph 94% 0 in 0 W/m2
19:06 41.2 °F 39.4 °F 29.9 in West 2.9 mph 5 mph 93% 0 in 0 W/m2
19:11 41.2 °F 39 °F 29.9 in WNW 2 mph 6 mph 92% 0 in 0 W/m2
19:16 41.2 °F 39 °F 29.9 in WNW 4 mph 6 mph 92% 0 in 0 W/m2
19:21 41.2 °F 39 °F 29.9 in West 2.9 mph 4 mph 92% 0 in 0 W/m2
19:26 40.8 °F 38.5 °F 29.9 in WNW 4 mph 5 mph 91% 0 in 0 W/m2
19:31 40.6 °F 38.3 °F 29.9 in WNW 4 mph 7 mph 91% 0 in 0 W/m2
19:36 40.6 °F 38.3 °F 29.9 in WSW 2.9 mph 4 mph 91% 0 in 0 W/m2
19:41 40.3 °F 37.9 °F 30 in West 2 mph 6 mph 91% 0 in 0 W/m2
19:46 39.9 °F 37.6 °F 30 in WNW 4.9 mph 7 mph 91% 0 in 0 W/m2
19:51 39.7 °F 37.4 °F 30 in WNW 2 mph 4 mph 91% 0 in 0 W/m2
19:56 39.6 °F 37.2 °F 30 in Calm   6 mph 91% 0 in 0 W/m2
20:01 39.6 °F 37.2 °F 30 in WNW 2 mph 2 mph 91% 0 in 0 W/m2
20:06 39.2 °F 36.9 °F 30 in WNW 2 mph 3 mph 91% 0 in 0 W/m2
20:11 39 °F 36.9 °F 30 in West 2.9 mph 7 mph 92% 0 in 0 W/m2
20:16 38.8 °F 36.7 °F 30 in WSW 2 mph 6 mph 92% 0 in 0 W/m2
20:21 38.8 °F 36.7 °F 30 in WNW 0.9 mph 5 mph 92% 0 in 0 W/m2
20:26 39 °F 36.9 °F 30 in WNW 2.9 mph 7 mph 92% 0 in 0 W/m2
20:31 39 °F 36.7 °F 30 in WNW 2.9 mph 4 mph 91% 0 in 0 W/m2
20:36 39 °F 36.7 °F 30 in WSW 2.9 mph 4 mph 91% 0 in 0 W/m2
20:41 39 °F 36.7 °F 30 in WSW 4 mph 4 mph 91% 0 in 0 W/m2
20:46 39 °F 36.3 °F 30 in NW 2.9 mph 7 mph 90% 0 in 0 W/m2
20:51 39 °F 36.3 °F 30 in West 6 mph 6 mph 90% 0 in 0 W/m2
20:56 38.8 °F 35.6 °F 30 in West 2.9 mph 7 mph 88% 0 in 0 W/m2
21:01 38.8 °F 35.6 °F 30 in WNW 2 mph 5 mph 88% 0 in 0 W/m2
21:06 38.7 °F 35.4 °F 30 in West 2.9 mph 4 mph 88% 0 in 0 W/m2
21:11 38.1 °F 34.9 °F 30 in WNW 2.9 mph 7 mph 88% 0 in 0 W/m2
21:16 37.8 °F 34.5 °F 30 in West 2.9 mph 4 mph 88% 0 in 0 W/m2
21:21 37.4 °F 34.2 °F 30 in WNW 4 mph 7 mph 88% 0 in 0 W/m2
21:26 37 °F 34.2 °F 30 in West 2 mph 4 mph 89% 0 in 0 W/m2
21:31 36.7 °F 33.8 °F 30 in West 2 mph 4 mph 89% 0 in 0 W/m2
21:36 36.3 °F 33.6 °F 30 in WNW 2 mph 3 mph 90% 0 in 0 W/m2
21:41 36.1 °F 33.3 °F 30 in West 2.9 mph 4 mph 89% 0 in 0 W/m2
21:46 36.1 °F 33.4 °F 30 in West 4 mph 4 mph 90% 0 in 0 W/m2
21:51 36 °F 33.1 °F 30 in West 2.9 mph 3 mph 89% 0 in 0 W/m2
21:56 36 °F 33.1 °F 30 in West 2.9 mph 4 mph 89% 0 in 0 W/m2
22:01 36 °F 32.7 °F 30 in West 2 mph 4 mph 88% 0 in 0 W/m2
22:06 36 °F 32.7 °F 30 in West 2 mph 4 mph 88% 0 in 0 W/m2
22:11 35.6 °F 32.7 °F 30 in WNW 2.9 mph 5 mph 89% 0 in 0 W/m2
22:16 35.4 °F 32.5 °F 30 in West 2.9 mph 8 mph 89% 0 in 0 W/m2
22:21 35.6 °F 32.4 °F 30 in West 4 mph 7 mph 88% 0 in 0 W/m2
22:26 36 °F 32.5 °F 30 in West 4 mph 8 mph 87% 0 in 0 W/m2
22:31 36.1 °F 32.7 °F 30 in WNW 4 mph 8 mph 87% 0 in 0 W/m2
22:36 36.3 °F 32.5 °F 30 in WNW 2.9 mph 7 mph 86% 0 in 0 W/m2
22:41 36.1 °F 32.4 °F 30 in West 6 mph 8 mph 86% 0 in 0 W/m2
22:46 36 °F 32.5 °F 30 in WNW 2.9 mph 6 mph 87% 0 in 0 W/m2
22:51 36 °F 32.5 °F 30 in WSW 4 mph 7 mph 87% 0 in 0 W/m2
22:56 35.6 °F 32.2 °F 30 in West 6.9 mph 7 mph 87% 0 in 0 W/m2
23:01 35.8 °F 32.4 °F 30 in WNW 4.9 mph 12 mph 87% 0 in 0 W/m2
23:06 36.1 °F 32.4 °F 30 in West 4 mph 8 mph 86% 0 in 0 W/m2
23:11 36.1 °F 32.4 °F 30 in WNW 6.9 mph 12 mph 86% 0 in 0 W/m2
23:16 36.3 °F 32.5 °F 30 in West 6 mph 9 mph 86% 0 in 0 W/m2
23:21 36.3 °F 32.5 °F 30 in WSW 4.9 mph 6 mph 86% 0 in 0 W/m2
23:26 36.1 °F 32.4 °F 30 in WNW 4.9 mph 8 mph 86% 0 in 0 W/m2
23:31 36.1 °F 32.4 °F 30 in WNW 6 mph 8 mph 86% 0 in 0 W/m2
23:36 36 °F 32.2 °F 30 in NW 4.9 mph 9 mph 86% 0 in 0 W/m2
23:41 36 °F 32.2 °F 30.1 in WSW 4.9 mph 8 mph 86% 0 in 0 W/m2
23:46 36 °F 32.5 °F 30.1 in West 2.9 mph 9 mph 87% 0 in 0 W/m2
23:51 36 °F 32.5 °F 30.1 in West 2.9 mph 6 mph 87% 0 in 0 W/m2
23:56 35.8 °F 32.4 °F 30.1 in West 6.9 mph 9 mph 87% 0 in 0 W/m2
Juneau County Weather
Compliments of Weather Underground - 4 mb